#timestamp,LO_Frequency,Hit,StdDev 
1624464015.2,286046997.7,N
1624464035.0,286046996.8,N
1624464035.9,286046996.8,N
1624464055.7,286046997.9,N
1624464075.6,286046997.1,N
1624464095.4,286046997.6,N
1624464115.3,286046997.8,N
1624464135.1,286046997.5,N
1624464155.8,286046995.2,N
1624464175.7,286046996.0,N
1624464195.5,286046995.7,N
1624464215.4,286046995.0,N
1624464235.2,286046995.5,N
1624464255.0,286046995.6,N
1624464255.9,286046995.6,N
1624464275.8,286046995.2,N
1624464295.6,286046997.8,N
1624464315.5,286046996.5,N
1624464335.3,286046997.3,N
1624464355.1,286046996.6,N
1624464375.9,286046999.6,N
1624464395.7,286046999.5,N
1624464415.6,286046999.2,N
1624464435.4,286046999.1,N
1624464455.2,286046998.9,N
1624464475.1,286046998.9,N
1624464476.0,286046998.9,N
1624464495.8,286046999.5,N
1624464515.6,286046998.3,N
1624464535.5,286046998.6,N
1624464555.3,286046998.8,N
1624464575.2,286046998.8,N
1624464595.9,286046998.9,N
1624464615.7,286046998.8,N
1624464635.6,286046999.4,N
1624464655.4,286046999.3,N
1624464675.2,286046999.4,N
1624464695.1,286046999.2,N
1624464696.0,286046999.2,N
1624464715.8,286046998.6,N
1624464735.7,286046998.3,N
1624464755.5,286046999.3,N
1624464775.3,286046998.5,N
1624464795.2,286046998.4,N
1624464815.0,286046999.5,N
1624464815.9,286046999.5,N
1624464835.8,286046998.3,N
1624464855.6,286046998.1,N
1624464875.4,286046998.1,N
1624464895.3,286046999.2,N
1624464915.1,286046998.4,Y
1624464935.9,286047000.4,P
1624464955.7,286046999.8,N
1624464975.5,286047001.1,N
1624464995.4,286046998.5,N
1624465015.2,286046998.3,N
1624465035.0,286047001.2,N
1624465035.9,286047001.2,N
1624465055.8,286046998.1,N
1624465075.6,286047000.7,N
1624465095.5,286047001.1,N
1624465115.3,286047001.2,N
1624465135.1,286047000.7,N
1624465155.9,286046998.7,N
1624465175.7,286046998.3,N
1624465195.6,286046998.7,N
1624465215.4,286046998.3,N
1624465235.2,286047011.9,Y
1624465255.1,286046998.5,P
1624465256.0,286046998.5,N
1624465275.8,286047000.7,N
1624465295.6,286047000.9,N
1624465315.5,286047001.1,N
1624465335.3,286046998.8,N
1624465355.2,286047001.2,N
1624465375.9,286046998.6,N
1624465395.7,286047000.7,N
1624465415.6,286047000.7,N
1624465435.4,286047000.9,N
1624465455.2,286046998.1,N
1624465475.1,286046998.2,N
1624465476.0,286046998.2,N
1624465495.8,286047000.8,N
1624465515.7,286046998.1,N
1624465535.5,286047001.2,N
1624465555.3,286047001.1,N
1624465575.2,286046998.1,N
1624465595.0,286046998.2,N
1624465595.9,286046998.2,N
1624465615.7,286046998.3,N
1624465635.6,286047001.1,N
1624465655.4,286046999.7,N
1624465675.3,286047000.0,N
1624465695.1,286047000.0,N
1624465715.8,286047000.3,N
1624465735.7,286047001.0,N
1624465755.5,286047000.8,N
1624465775.4,286047001.2,N
1624465795.2,286046998.5,N
1624465815.0,286046999.0,N
1624465815.9,286046999.0,N
1624465835.8,286047000.7,N
1624465855.6,286047000.9,N
1624465875.4,286047000.9,N
1624465895.3,286047002.6,N
1624465915.1,286047002.2,N
1624465935.9,286047000.3,N
1624465955.7,286047002.3,N
1624465975.5,286047002.8,N
1624465995.4,286047002.4,N
1624466015.2,286047002.3,N
1624466035.1,286047002.3,N
1624466036.0,286047002.3,N
1624466055.8,286047000.8,N
1624466075.6,286047000.7,N
1624466095.5,286046998.6,N
1624466115.3,286047001.2,N
1624466135.1,286047000.4,N
1624466155.9,286047000.9,N
1624466175.7,286047002.6,N
1624466195.6,286047001.5,N
1624466215.4,286047002.7,N
1624466235.2,286047000.6,N
1624466255.1,286047000.6,N
1624466256.0,286047000.6,N
1624466275.8,286047000.4,N
1624466295.6,286047000.0,N
1624466315.5,286046999.8,N
1624466335.3,286047002.4,N
1624466355.2,286047002.6,N
1624466375.9,286047004.0,Y
1624466395.7,286046999.7,P
1624466415.6,286047002.6,P
1624466435.4,286047000.5,N
1624466455.3,286047000.2,N
1624466475.1,286047000.1,N
1624466476.0,286047000.1,N
1624466495.8,286047002.7,N
1624466515.7,286047000.5,N
1624466535.5,286047000.0,N
1624466555.3,286047002.6,N
1624466575.2,286047002.1,N
1624466595.0,286047001.6,N
1624466595.9,286047001.6,N
1624466615.8,286047004.3,Y
1624466635.6,286046999.7,P
1624466655.4,286047000.4,N
1624466675.3,286046999.7,N
1624466695.1,286047002.7,Y
1624466715.9,286047000.5,P
1624466735.7,286047000.4,N
1624466755.5,286047001.4,P
1624466775.4,286047001.4,Y
1624466795.2,286047002.4,P
1624466815.0,286047000.1,N
1624466815.9,286047000.1,N
1624466835.8,286047002.8,N
1624466855.6,286047002.2,N
1624466875.5,286047002.7,N
1624466895.3,286047002.0,N
1624466915.1,286046999.8,N
1624466935.9,286046999.7,N
1624466955.7,286046999.9,N
1624466975.6,286046999.7,N
1624466995.4,286047002.4,N
1624467015.2,286047001.9,N
1624467035.1,286046999.7,N
1624467036.0,286046999.7,N
1624467055.8,286047001.1,N
1624467075.7,286046998.6,N
1624467095.5,286046999.3,N
1624467115.3,286046996.9,N
1624467135.2,286046997.0,N
1624467155.0,286046997.9,N
1624467155.9,286046997.9,N
1624467175.8,286046995.5,N
1624467195.6,286046995.7,N
1624467215.4,286046996.2,N
1624467235.3,286046996.2,N
1624467255.1,286046996.3,N
1624467275.8,286046995.9,N
1624467295.7,286046993.3,N
1624467315.5,286046993.9,N
1624467335.4,286046993.4,N
1624467355.2,286046996.2,N
1624467375.0,286046993.7,N
1624467375.9,286046993.7,N
1624467395.8,286046993.8,N
1624467415.6,286046994.7,N
1624467435.5,286046993.9,N
1624467455.3,286046996.3,N
1624467475.1,286046996.3,N
1624467495.9,286046993.4,N
1624467515.7,286046993.4,N
1624467535.6,286046996.4,N
1624467555.6,286046995.2,N
1624467575.5,286046995.7,N
1624467595.3,286046995.1,N
